Location: ???? ?????????
(44.3677°N, 135.2344°E)
Time: 17:01:21
(UTC+00:00)

Ariane Rocket - Pass Details

Date: 19 May 2025
Orbit: 755 x 764 km, 98.5° (Epoch: 20 June)

Event Time Altitude Azimuth Distance (km) Brightness Sun altitude
Exits shadow 12:56:38 29° 197° (SSW) 1,357 3.9 -20.2°
Maximum altitude 12:58:57 53° 260° (W) 934 3.5 -20.4°
Drops below altitude 10° 13:03:55 10° 337° (NNW) 2,307 6.7 -20.9°
Sets 13:06:17 0° 342° (NNW) 3,239 7.7 -21.1°
